sat.trackr.live / text

‹ back to catalog

YAM-10

NORAD 64580 · 2025-135BE

PAYLOAD ACTIVE UNKNOWN

§ Identity

Operator
Country
US
Launch date
2025-06-23
Launch site
AFWTR
Launch vehicle
Mass (kg)
RCS (m²)

External: N2YO · Heavens-Above · Gunter

§ Orbital elements

Epoch: 2026-09-21T20:33:33.211296Z

Period
96.51 min
Inclination
97.7806°
Eccentricity
0.0004013
Mean motion
14.92085623 rev/d
Perigee alt
588.6 km
Apogee alt
594.2 km
Semi-major
6,969.6 km
B*
1.2258e-4
RAAN
17.4231°
Arg perigee
51.0940°
Mean anomaly
309.0637°
Rev number
6,827

§ Raw data

YAM-101 64580U 25135BE  26264.85663439  .00001189  00000+0  12258-3 0  99922 64580  97.7806  17.4231 0004013  51.0940 309.0637 14.92085623 68278

JSON: /api/v1/satellites/64580 · /tle

For live sub-satellite position, see the globe view (requires WebGL).

§ Visibility from observer

Set your observer location to see the next 7 days of passes ≥ 10°. The values pass through the URL so the page stays shareable.

No JS? Fill the form by hand. The geolocation button needs JavaScript.

§ Radio — SatNOGS DB

ModeDescriptionDownlinkUplink
FM S-band telemetry 2.253 GHz

1 transmitter · refreshed weekly from db.satnogs.org